Boone, NC

7:51 AM EDT on June 25, 2017 (GMT -0400)
Boone

Weather History for KTNB - May, 2014

Change the Weather History Date:

Saturday, May 3, 2014

  Actual Average (KGEV) Record (KGEV)
Temperature  
Mean Temperature 54 °F -  
Max Temperature 63 °F 67 °F 77 °F (1992)
Min Temperature 44 °F 42 °F 26 °F (1981)
Degree Days  
Heating Degree Days 12    
Growing Degree Days 4 (Base 50)    
Moisture  
Dew Point 34 °F    
Average Humidity 48    
Maximum Humidity 72    
Minimum Humidity 31    
Precipitation  
Precipitation 0.00 in - - ()
Sea Level Pressure  
Sea Level Pressure 29.96 in    
Wind  
Wind Speed 9 mph (WNW)    
Max Wind Speed 21 mph    
Max Gust Speed 33 mph    
Visibility 10 miles    
Events      
Averages and records for this station are not official NWS values.
T = Trace of Precipitation, MM = Missing Value Source: NWS Daily Summary

Daily Weather History Graph

Daily Weather History Graph

Search for Another Location

Airport or City:

Trip Planner

Search our weather history database for the weather conditions in past years. The results will help you decide how hot, cold, wet, or windy it might be!

Date:

Astronomy

May. 03, 2014 Rise Set
Actual Time 6:31 AM EDT 8:16 PM EDT
Civil Twilight 6:03 AM EDT 8:43 PM EDT
Nautical Twilight 5:30 AM EDT 9:17 PM EDT
Astronomical Twilight 4:55 AM EDT 9:52 PM EDT
Moon 10:01 AM EDT (5/3) No Moon Set
Length of Visible Light 14h 39m
Length of Day
13h 44m
Waxing Crescent, 19% of the Moon is Illuminated
May 3
Waxing Crescent
May 6
First Quarter
May 14
Full
May 21
Last Quarter
May 28
New

Hourly Weather History & Observations

Time (EDT) Temp. Windchill Dew Point Humidity Pressure Visibility Wind Dir Wind Speed Gust Speed Precip Events Conditions
12:15 AM 50.4 °F - 34.3 °F 54% 29.94 in 10.0 mi WNW 3.5 mph - N/A   Mostly Cloudy
12:35 AM 50.5 °F - 34.7 °F 55% 29.94 in 10.0 mi WNW 3.5 mph - N/A   Scattered Clouds
12:55 AM 50.5 °F - 34.0 °F 53% 29.94 in 10.0 mi WNW 4.6 mph - N/A   Scattered Clouds
1:15 AM 50.4 °F - 34.3 °F 54% 29.94 in 10.0 mi WNW 4.6 mph - N/A   Scattered Clouds
1:35 AM 50.4 °F - 34.5 °F 55% 29.94 in 10.0 mi NNW 4.6 mph - N/A   Scattered Clouds
1:55 AM 49.8 °F - 35.4 °F 58% 29.93 in 10.0 mi Calm Calm - N/A   Scattered Clouds
2:15 AM 48.2 °F - 35.8 °F 62% 29.93 in 10.0 mi Calm Calm - N/A   Clear
2:35 AM 45.7 °F - 36.5 °F 70% 29.93 in 10.0 mi Calm Calm - N/A   Clear
2:55 AM 47.7 °F - 36.1 °F 64% 29.93 in 10.0 mi WNW 9.2 mph - N/A   Clear
3:15 AM 49.3 °F - 35.8 °F 60% 29.93 in 10.0 mi WNW 10.4 mph 16.1 mph N/A   Clear
3:35 AM 49.1 °F - 36.0 °F 61% 29.93 in 10.0 mi WNW 10.4 mph - N/A   Clear
3:55 AM 48.2 °F - 36.0 °F 63% 29.94 in 10.0 mi WNW 8.1 mph - N/A   Clear
4:15 AM 47.7 °F - 36.3 °F 65% 29.94 in 10.0 mi WNW 10.4 mph - N/A   Clear
4:35 AM 47.3 °F - 36.5 °F 66% 29.94 in 10.0 mi WNW 6.9 mph - N/A   Clear
4:55 AM 46.9 °F - 36.5 °F 67% 29.94 in 10.0 mi NW 4.6 mph - N/A   Clear
5:15 AM 46.6 °F - 36.5 °F 68% 29.93 in 10.0 mi West 3.5 mph - N/A   Clear
5:35 AM 45.7 °F - 36.5 °F 70% 29.94 in 10.0 mi Calm Calm - N/A   Clear
5:55 AM 45.7 °F 42.0 °F 36.5 °F 70% 29.94 in 10.0 mi WNW 6.9 mph - N/A   Clear
6:15 AM 45.5 °F 40.3 °F 36.5 °F 71% 29.94 in 10.0 mi WNW 10.4 mph - N/A   Clear
6:35 AM 45.0 °F 40.1 °F 36.5 °F 72% 29.94 in 10.0 mi West 9.2 mph - N/A   Clear
6:55 AM 44.8 °F 41.0 °F 36.3 °F 72% 29.95 in 10.0 mi West 6.9 mph - N/A   Clear
7:15 AM 45.5 °F 39.2 °F 36.3 °F 70% 29.95 in 10.0 mi WNW 13.8 mph - N/A   Clear
7:35 AM 46.4 °F 40.4 °F 35.8 °F 67% 29.97 in 10.0 mi WNW 13.8 mph - N/A   Clear
7:55 AM 46.6 °F - 35.6 °F 66% 29.96 in 10.0 mi WNW 11.5 mph - N/A   Clear
8:15 AM 46.9 °F - 34.5 °F 62% 29.96 in 10.0 mi WNW 10.4 mph - N/A   Clear
8:35 AM 47.5 °F - 34.7 °F 61% 29.96 in 10.0 mi NW 11.5 mph 19.6 mph N/A   Clear
8:55 AM 48.7 °F - 34.7 °F 58% 29.97 in 10.0 mi NW 11.5 mph 18.4 mph N/A   Clear
9:15 AM 49.1 °F - 33.8 °F 56% 29.97 in 10.0 mi NW 17.3 mph 32.2 mph N/A   Clear
9:35 AM 50.0 °F - 33.1 °F 52% 29.97 in 10.0 mi NW 15.0 mph 28.8 mph N/A   Clear
9:55 AM 50.4 °F - 32.2 °F 50% 29.98 in 10.0 mi WNW 20.7 mph 26.5 mph N/A   Clear
10:15 AM 51.1 °F - 32.4 °F 49% 29.98 in 10.0 mi West 16.1 mph 23.0 mph N/A   Scattered Clouds
10:35 AM 51.8 °F - 32.0 °F 47% 29.98 in 10.0 mi NNW 13.8 mph 19.6 mph N/A   Clear
10:55 AM 52.7 °F - 32.0 °F 45% 29.98 in 10.0 mi WNW 13.8 mph 24.2 mph N/A   Clear
11:15 AM 53.1 °F - 32.0 °F 45% 29.98 in 10.0 mi NW 17.3 mph 21.9 mph N/A   Clear
11:35 AM 54.7 °F - 32.0 °F 42% 29.98 in 10.0 mi NW 10.4 mph 20.7 mph N/A   Clear
11:55 AM 55.2 °F - 32.0 °F 41% 29.98 in 10.0 mi NW 16.1 mph 24.2 mph N/A   Clear
12:15 PM 55.8 °F - 31.1 °F 39% 29.98 in 10.0 mi NW 17.3 mph 26.5 mph N/A   Clear
12:35 PM 55.9 °F - 30.7 °F 38% 29.98 in 10.0 mi NW 15.0 mph 25.3 mph N/A   Clear
12:55 PM 56.7 °F - 30.9 °F 38% 29.98 in 10.0 mi NW 16.1 mph 25.3 mph N/A   Clear
1:15 PM 58.1 °F - 31.1 °F 36% 29.97 in 10.0 mi WNW 15.0 mph 23.0 mph N/A   Clear
1:35 PM 59.0 °F - 31.6 °F 36% 29.97 in 10.0 mi WNW 10.4 mph 25.3 mph N/A   Clear
1:55 PM 60.1 °F - 32.0 °F 35% 29.97 in 10.0 mi West 13.8 mph 24.2 mph N/A   Clear
2:15 PM 60.6 °F - 31.8 °F 34% 29.96 in 10.0 mi WNW 6.9 mph 20.7 mph N/A   Clear
2:35 PM 61.9 °F - 31.8 °F 32% 29.96 in 10.0 mi WNW 19.6 mph 26.5 mph N/A   Clear
2:55 PM 62.8 °F - 32.0 °F 32% 29.95 in 10.0 mi WNW 16.1 mph 25.3 mph N/A   Clear
3:15 PM 63.3 °F - 32.9 °F 32% 29.96 in 10.0 mi WNW 15.0 mph 26.5 mph N/A   Clear
3:35 PM 63.1 °F - 32.5 °F 32% 29.95 in 10.0 mi West 19.6 mph 26.5 mph N/A   Clear
3:55 PM 63.7 °F - 32.7 °F 31% 29.95 in 10.0 mi WNW 15.0 mph 28.8 mph N/A   Clear
4:15 PM 63.3 °F - 32.9 °F 32% 29.95 in 10.0 mi NW 20.7 mph 28.8 mph N/A   Clear
4:35 PM 63.0 °F - 32.9 °F 32% 29.95 in 10.0 mi NW 17.3 mph 27.6 mph N/A   Clear
4:55 PM 63.5 °F - 33.3 °F 32% 29.95 in 10.0 mi WNW 12.7 mph 31.1 mph N/A   Clear
5:15 PM 63.9 °F - 34.0 °F 33% 29.95 in 10.0 mi WNW 17.3 mph 25.3 mph N/A   Clear
5:35 PM 63.3 °F - 33.3 °F 33% 29.95 in 10.0 mi NW 19.6 mph 33.4 mph N/A   Clear
5:55 PM 62.8 °F - 33.4 °F 33% 29.95 in 10.0 mi WNW 20.7 mph 29.9 mph N/A   Clear
6:15 PM 63.0 °F - 33.3 °F 33% 29.95 in 10.0 mi WNW 19.6 mph 31.1 mph N/A   Clear
6:35 PM 62.6 °F - 33.4 °F 34% 29.95 in 10.0 mi WNW 17.3 mph 23.0 mph N/A   Clear
6:55 PM 61.7 °F - 33.3 °F 34% 29.95 in 10.0 mi West 13.8 mph 27.6 mph N/A   Clear
7:15 PM 61.7 °F - 34.0 °F 35% 29.95 in 10.0 mi WNW 16.1 mph 28.8 mph N/A   Clear
7:35 PM 60.4 °F - 34.7 °F 38% 29.96 in 10.0 mi WNW 13.8 mph 29.9 mph N/A   Clear
7:55 PM 60.3 °F - 35.2 °F 39% 29.97 in 10.0 mi WNW 15.0 mph 24.2 mph N/A   Clear
8:15 PM 59.9 °F - 35.8 °F 41% 29.97 in 10.0 mi WNW 12.7 mph 21.9 mph N/A   Clear
8:35 PM 59.4 °F - 36.1 °F 42% 29.97 in 10.0 mi WNW 12.7 mph 18.4 mph N/A   Clear
8:55 PM 59.0 °F - 36.5 °F 43% 29.97 in 10.0 mi WNW 11.5 mph 16.1 mph N/A   Clear
9:15 PM 58.5 °F - 36.5 °F 44% 29.98 in 10.0 mi WNW 10.4 mph 20.7 mph N/A   Clear
9:35 PM 58.1 °F - 36.7 °F 45% 29.98 in 10.0 mi WNW 10.4 mph - N/A   Clear
9:55 PM 58.1 °F - 36.7 °F 45% 29.99 in 10.0 mi WNW 11.5 mph - N/A   Clear
10:15 PM 57.9 °F - 35.8 °F 44% 30.00 in 10.0 mi WNW 11.5 mph 18.4 mph N/A   Clear
10:35 PM 58.1 °F - 34.2 °F 41% 30.00 in 10.0 mi NW 17.3 mph 25.3 mph N/A   Clear
10:55 PM 57.7 °F - 34.0 °F 41% 30.01 in 10.0 mi WNW 13.8 mph 20.7 mph N/A   Clear
11:15 PM 57.6 °F - 33.8 °F 41% 30.00 in 10.0 mi WNW 12.7 mph - N/A   Clear
11:35 PM 57.0 °F - 34.0 °F 42% 30.01 in 10.0 mi WNW 8.1 mph 20.7 mph N/A   Clear
11:55 PM 56.7 °F - 33.6 °F 42% 30.01 in 10.0 mi West 10.4 mph - N/A   Clear